Regional Weather Roundup
Issued by NWS State College, PA

Home | Current Version | Previous Version | Text Only | Print | Product List | Glossary Off
Versions: 1 2 3 4 5 6 7 8 9 10 11 12 13 14 15 16 17 18 19 20 21 22 23 24 25 26 27 28 29 30 31 32 33 34 35 36 37 38 39 40 41 42 43 44 45 46 47 48 49 50

000
ASUS41 KCTP 030303
RWRCTP

REGIONAL WEATHER ROUNDUP
NATIONAL WEATHER SERVICE STATE COLLEGE PA
1100 PM EDT MON MAY 02 2016

Note: "fair" indicates few or no clouds below 12,000 feet with no
significant weather and/or obstructions to visibility.

* = STATION THAT DOES NOT REPORT PRECIPITATION /E.G. RAIN...SNOW...ETC/
    THUNDER OR FOG.

PAZ002>004-007>009-013>016-020>023-029>032-030400-
WESTERN PENNSYLVANIA

CITY           SKY/WX    TMP DP  RH WIND       PRES   REMARKS
ERIE           PTCLDY    43  40  89 CALM      29.96F
MEADVILLE      CLOUDY    41  41 100 N5        29.94F
FRANKLIN*      CLOUDY    46  41  81 N7        29.94F
NEW CASTLE     CLOUDY    48  44  86 VRB5      29.95S
BEAVER COUNTY  NOT AVBL
BUTLER*        CLOUDY    52  45  76 CALM      29.94F
PITTSBURGH INT CLOUDY    53  45  74 N7        29.91F
PITTSBURGH     CLOUDY    54  48  80 NW8       29.91S
INDIANA*       CLOUDY    55  54  94 NW5       29.93S
LATROBE        CLOUDY    55  55 100 CALM      29.92S
WASHINGTON CO* CLOUDY    54  48  82 CALM      29.93R
$$

PAZ004>006-010>012-017>019-024>028-033>037-041-042-045-046-049>053-030400-
CENTRAL PENNSYLVANIA

CITY           SKY/WX    TMP DP  RH WIND       PRES   REMARKS
BRADFORD       CLOUDY    46  43  89 NE7       29.92F
DUBOIS         CLOUDY    51  47  86 N5        29.90S
CLEARFIELD     CLOUDY    57  48  72 NE3       29.90S
JOHNSTOWN      CLOUDY    54  48  80 CALM      29.90S
ALTOONA        CLOUDY    57  53  86 E5        29.90S
STATE COLLEGE  LGT RAIN  56  53  91 N9        29.90R
WILLIAMSPORT   CLOUDY    55  48  77 SE3       29.94R
SELINSGROVE    CLOUDY    58  50  75 N9        29.92R
FT INDIANTOWN  NOT AVBL
CAPITAL CITY   RAIN      60  57  89 E6        29.89F FOG
HARRISBURG     RAIN      60  58  92 CALM      29.90F FOG
YORK           RAIN      61  60  97 E7        29.89F FOG
$$

PAZ038>040-043-044-047-048-054-055-060>062-067>071-030400-
EASTERN PENNSYLVANIA

CITY           SKY/WX    TMP DP  RH WIND       PRES   REMARKS
SCRANTON       CLOUDY    52  45  77 NE6       29.95S
MOUNT POCONO   CLOUDY    49  44  83 N5        29.94S
ALLENTOWN      CLOUDY    57  53  86 CALM      29.93R
QUAKERTOWN*    CLOUDY    55  55 100 CALM      29.94R
READING        TSTM      59  56  89 SE7       29.91R FOG
LANCASTER      HVY RAIN  58  58 100 SE8       29.92R VSB 3/4
COATESVILLE    RAIN      57  57 100 E8        29.94R
POTTSTOWN      RAIN      57  56  96 CALM      29.93S FOG
BLUE BELL      CLOUDY    55  54  94 CALM      29.91S
DOYLESTOWN     TSTM      54  54 100 SE9       29.93R FOG
WILLOW GROVE   NOT AVBL
NORTH PHILA    RAIN      59  56  89 E3        29.94R FOG
PHILADELPHIA   LGT RAIN  60  55  83 E6        29.92R
$$



USA.gov is the U.S. government's official web portal to all federal, state and local government web resources and services.